Regional Weather Roundup
Issued by NWS

Home | Current Version | Previous Version | Text Only | Print | Product List | Glossary Off
Versions: 1 2 3 4 5 6 7 8 9 10 11 12 13 14 15 16 17 18 19 20 21 22 23 24 25 26 27 28 29 30 31 32 33 34 35 36 37 38 39 40 41 42 43 44 45 46 47 48 49 50

000
ASUS43 KBIS 201002
RWRND

NORTH DAKOTA REGIONAL WEATHER ROUNDUP
NATIONAL WEATHER SERVICE BISMARCK ND
400 AM CST MON FEB 20 2017

NOTE: "FAIR" INDICATES FEW OR NO CLOUDS BELOW 12,000 FEET WITH NO
SIGNIFICANT WEATHER AND/OR OBSTRUCTIONS TO VISIBILITY.


NDZ001>003-009>011-017-201100-
NORTHWEST NORTH DAKOTA

CITY           SKY/WX    TMP DP  RH WIND       PRES   REMARKS
WILLISTON      FAIR      33  32  96 W9        29.64R
MINOT          CLOUDY    35  32  88 NW9       29.56S
MINOT AFB      CLOUDY    33  32  97 NW12      29.57S
$$

NDZ018>021-031>035-040>046-201100-
SOUTHWEST NORTH DAKOTA

CITY           SKY/WX    TMP DP  RH WIND       PRES   REMARKS
BISMARCK       LGT RAIN  37  35  92 CALM      29.57R
DICKINSON      CLOUDY    36  33  89 W13       29.59R
GARRISON         N/A     35  32  88 CALM      29.57R
HETTINGER ARPT MOCLDY    39  34  82 NW13      29.62R
$$

NDZ004>008-012>016-024-026-027-054-201100-
NORTHEAST NORTH DAKOTA

CITY           SKY/WX    TMP DP  RH WIND       PRES   REMARKS
GRAND FORKS    CLOUDY    39  35  86 CALM      29.57R FOG
GRND FRKS AFB  FOG       39  39 100 S9        29.57F VSB 1
DEVILS LAKE    FOG       34  34 100 W6        29.56S VSB 1/4
$$

NDZ022-023-025-028>030-036>039-047>053-201100-
SOUTHEAST NORTH DAKOTA

CITY           SKY/WX    TMP DP  RH WIND       PRES   REMARKS
FARGO          LGT RAIN  53  49  86 S20G25    29.60R
JAMESTOWN      FAIR      43  42  97 CALM      29.53F FOG
$$




USA.gov is the U.S. government's official web portal to all federal, state and local government web resources and services.